Shreveport Downtown, LA

1:35 PM CDT on March 23, 2017 (GMT -0500)
Shreveport Downtown

Weather History for KDTN - February, 2013

Change the Weather History Date:

Monday, February 25, 2013

  Actual Average (KBAD) Record (KBAD)
Temperature  
Mean Temperature 56 °F -  
Max Temperature 64 °F 59 °F 79 °F (2008)
Min Temperature 46 °F 41 °F 30 °F (2003)
Degree Days  
Heating Degree Days 9    
Growing Degree Days 6 (Base 50)    
Moisture  
Dew Point 47 °F    
Average Humidity 71    
Maximum Humidity 100    
Minimum Humidity 36    
Precipitation  
Precipitation 0.13 in - - ()
Sea Level Pressure  
Sea Level Pressure 29.54 in    
Wind  
Wind Speed 7 mph (SSW)    
Max Wind Speed 25 mph    
Max Gust Speed 34 mph    
Visibility 9 miles    
Events Rain , Thunderstorm    
Averages and records for this station are not official NWS values.
T = Trace of Precipitation, MM = Missing Value Source: NWS Daily Summary

Daily Weather History Graph

Daily Weather History Graph

Search for Another Location

Airport or City:

Trip Planner

Search our weather history database for the weather conditions in past years. The results will help you decide how hot, cold, wet, or windy it might be!

Date:

Astronomy

Feb. 25, 2013 Rise Set
Actual Time 6:46 AM CST 6:09 PM CST
Civil Twilight 6:22 AM CST 6:34 PM CST
Nautical Twilight 5:53 AM CST 7:02 PM CST
Astronomical Twilight 5:25 AM CST 7:31 PM CST
Moon 6:19 PM CST (2/25) 6:19 AM CST (2/25)
Length of Visible Light 12h 12m
Length of Day
11h 22m
Full, 100% of the Moon is Illuminated
Feb 25
Full
Feb 25
Full
Mar 4
Last Quarter
Mar 11
New
Mar 19
First Quarter

Hourly Weather History & Observations

Time (CST) Temp. Windchill Dew Point Humidity Pressure Visibility Wind Dir Wind Speed Gust Speed Precip Events Conditions
12:53 AM 54.0 °F - 37.9 °F 55% 29.72 in 10.0 mi Calm Calm - N/A   Mostly Cloudy
1:53 AM 53.1 °F - 39.0 °F 59% 29.71 in 10.0 mi Calm Calm - N/A   Overcast
2:53 AM 53.1 °F - 39.9 °F 61% 29.67 in 10.0 mi East 4.6 mph - N/A   Overcast
4:53 AM 54.0 °F - 42.1 °F 64% 29.64 in 10.0 mi ENE 4.6 mph - N/A   Overcast
5:00 AM 53.6 °F - 42.8 °F 67% 29.64 in 10.0 mi East 4.6 mph - N/A   Overcast
5:53 AM 55.0 °F - 43.0 °F 64% 29.65 in 10.0 mi ENE 3.5 mph - N/A   Overcast
6:53 AM 54.0 °F - 45.0 °F 72% 29.69 in 10.0 mi NNW 3.5 mph - 0.00 in Rain Light Rain
7:53 AM 53.1 °F - 48.0 °F 83% 29.68 in 10.0 mi NNE 3.5 mph - 0.02 in   Overcast
8:53 AM 54.0 °F - 48.9 °F 83% 29.64 in 10.0 mi East 6.9 mph - 0.00 in Rain Light Rain
9:53 AM 57.0 °F - 52.0 °F 83% 29.61 in 10.0 mi ESE 12.7 mph 19.6 mph 0.00 in   Overcast
10:53 AM 61.0 °F - 55.0 °F 81% 29.55 in 10.0 mi ESE 11.5 mph 18.4 mph N/A   Overcast
11:53 AM 62.1 °F - 57.0 °F 84% 29.52 in 10.0 mi SE 10.4 mph - N/A   Overcast
12:53 PM 62.1 °F - 57.9 °F 86% 29.45 in 10.0 mi SE 15.0 mph 23.0 mph N/A   Overcast
1:16 PM 60.8 °F - 59.0 °F 94% 29.42 in 7.0 mi SSE 12.7 mph - 0.02 in Rain Light Rain
1:27 PM 60.8 °F - 59.0 °F 94% 29.43 in 8.0 mi SSW 8.1 mph - 0.02 in Thunderstorm Thunderstorm
1:48 PM 60.8 °F - 59.0 °F 94% 29.44 in 2.5 mi SW 10.4 mph 16.1 mph 0.05 in Rain Light Rain
1:53 PM 61.0 °F - 59.0 °F 93% 29.44 in 1.0 mi WSW 10.4 mph - 0.11 in Rain Heavy Rain
2:09 PM 60.8 °F - 60.8 °F 100% 29.42 in 3.0 mi West 6.9 mph - 0.01 in Rain Light Rain
2:16 PM 60.8 °F - 60.8 °F 100% 29.41 in 5.0 mi West 6.9 mph - 0.01 in Rain Light Rain
3:53 PM 64.9 °F - 57.0 °F 75% 29.38 in 10.0 mi Calm Calm - N/A   Clear
4:53 PM 64.9 °F - 43.0 °F 45% 29.40 in 10.0 mi West 18.4 mph 29.9 mph N/A   Clear
5:53 PM 61.0 °F - 34.0 °F 36% 29.44 in 10.0 mi West 11.5 mph 24.2 mph N/A   Clear
6:53 PM 57.9 °F - 30.9 °F 36% 29.45 in 10.0 mi WSW 9.2 mph - N/A   Clear
7:53 PM 55.0 °F - 30.9 °F 40% 29.48 in 10.0 mi WSW 17.3 mph 34.5 mph N/A   Clear
9:53 PM 48.0 °F - 30.0 °F 50% 29.53 in 10.0 mi WSW 12.7 mph 19.6 mph N/A   Clear
10:53 PM 48.0 °F - 32.0 °F 54% 29.54 in 10.0 mi WSW 25.3 mph 32.2 mph N/A   Overcast
11:53 PM 46.0 °F 38.3 °F 34.0 °F 63% 29.55 in 10.0 mi West 20.7 mph 28.8 mph N/A   Overcast